Location: LDNL
(36.4545°S, 141.6685°E)
Time: 11:16:38
(UTC+10:00)

Vanguard 3 - Pass Details

Date: 27 January 2022
Orbit: 508 x 3258 km, 33.3° (Epoch: 25 May)

Event Time Altitude Azimuth Distance (km) Brightness Sun altitude
Rises 03:54:16 0° 271° (W) 4,871 - -27.2°
Reaches altitude 10° 03:56:56 10° 272° (W) 4,180 - -26.9°
Exits shadow 03:58:53 19° 273° (W) 3,720 10.1 -26.6°
Maximum altitude 04:09:19 79° 356° (N) 2,657 9.5 -25.4°
Drops below altitude 10° 04:28:43 10° 78° (ENE) 6,183 12.0 -22.9°
Sets 04:33:40 0° 78° (ENE) 7,226 12.4 -22.2°
